Jordan Crawford

Olheiro-Chefe - Melbourne City
5 Dez 2027
Domingo
Processo

Personalidade

Adaptabilidade (10) Ambição (12) Controvérsia (11) Lealdade (19) Pressão (17) Profissionalismo (15) Espírito Esportivo (13) Temperamento (12)

Perfil

Estilo de Treinamento Democrático
Licença Nacional A
Determinação 11
Gestão de Pessoas 11
Motivação 10
Disciplina 11
Satisfação no Trabalho
100%
Fadiga
0%
Função Olheiro-Chefe
Salário 54.6K p/s
Contrato 14.03.2029

Desempenho

Comportamento Bom
Eficácia do Treinamento
25%
Desenvolvimento do Jogador
25%
Prevenção de Lesões
20%
Implementação Tática
15%

Monitorando agora

59
Jogador Clube Status Habilidade Confiança Observado Última observação Último voto
Toma Bašić Venezia Ativo 150 / 138 40% 1 10.08.2027 -
Giacomo Olzer Pescara Ativo 133 / 137 40% 1 10.08.2027 -
Stiven Shpendi Empoli Ativo 112 / 118 40% 2 22.07.2027 -
Callum Paterson Milton Keynes Dons Negociando 118 / 105 40% 1 22.07.2027 -
Lee Bonis Chesterfield Ativo 97 / 123 40% 1 22.07.2027 -
Lamine Cissé Stoke City Ativo 123 / 140 40% 3 17.07.2027 -
Rocco Vata Watford Ativo 129 / 119 40% 2 17.07.2027 -
Sam Nombe Milton Keynes Dons Ativo 116 / 105 40% 2 17.07.2027 -
Mees Rijks Bristol Rovers Ativo 117 / 99 40% 2 14.07.2027 -
Marco Tumminello Benevento Ativo 124 / 100 40% 1 14.07.2027 -
Isaak Davies Cardiff City Ativo 117 / 98 40% 1 14.07.2027 -
Ross Stewart Southampton Ativo 138 / 141 40% 3 13.07.2027 -
Dale Taylor Blackpool Ativo 104 / 117 40% 1 13.07.2027 -
Aaron Collins Milton Keynes Dons Ativo 131 / 130 40% 2 12.07.2027 -
Giovanni Simeone Torino Ativo 136 / 138 40% 1 12.07.2027 -
Bernat Guiu Virtus Entella Ativo 126 / 133 40% 1 10.07.2027 -
Joel Pohjanpalo Palermo Ativo 145 / 135 40% 1 10.07.2027 -
Kelly Saravanan Salford City Ativo 121 / 108 40% 2 09.07.2027 -
Job Ochieng Real Sociedad Ativo 110 / 106 40% 1 09.07.2027 -
Matteo Rover Reggiana Ativo 120 / 102 40% 1 09.07.2027 -
Brayan Alcócer Tranmere Rovers Ativo 118 / 93 40% 1 08.07.2027 -
John Yeboah Venezia Ativo 121 / 113 40% 1 05.07.2027 -
Davis Keillor-Dunn Wrexham Ativo 117 / 135 40% 1 05.07.2027 -
Ronan Hale Gillingham Ativo 112 / 100 40% 2 04.07.2027 -
Lamine Guèye Newport County Ativo 119 / 129 40% 2 03.07.2027 -
Sam Smith Wrexham Ativo 118 / 133 40% 1 03.07.2027 -
Giuseppe Panico Foggia Ativo 109 / 129 40% 1 02.07.2027 -
Yuki Ohashi Blackburn Rovers Ativo 121 / 124 40% 1 02.07.2027 -
Simone Mazzocchi Cosenza Ativo 128 / 114 40% 1 30.06.2027 -
Rui Costa Port Vale Ativo 101 / 128 40% 1 30.06.2027 -
Sinclair Armstrong Bristol City Ativo 110 / 112 40% 3 28.06.2027 -
Niall Ennis Blackpool Ativo 115 / 120 40% 2 28.06.2027 -
Moussa Yeo Swansea City Ativo 134 / 121 40% 1 28.06.2027 -
Alberto Cerri Cesena Ativo 109 / 135 40% 2 27.06.2027 -
Adam Armstrong Wolverhampton Ativo 120 / 127 40% 1 27.06.2027 -
Harvey Blair Portsmouth Ativo 110 / 102 40% 2 24.06.2027 -
Camillo Tavernelli Arezzo Ativo 127 / 112 40% 1 24.06.2027 -
Harry Leonard Peterborough United Ativo 104 / 110 40% 1 23.06.2027 -
Fabrizio Cavegn Bristol Rovers Ativo 100 / 106 40% 1 23.06.2027 -
Lyle Foster Burnley Ativo 137 / 138 40% 1 23.06.2027 -
Filippo Distefano Empoli Ativo 114 / 107 40% 1 20.06.2027 -
Christian Saydee Wigan Athletic Ativo 108 / 111 40% 1 19.06.2027 -
Rayan Kolli Queens Park Rangers Ativo 100 / 129 40% 1 18.06.2027 -
Emanuele Pecorino Catanzaro Ativo 123 / 117 40% 1 17.06.2027 -
Aaron Drinan Swindon Town Ativo 114 / 111 40% 1 17.06.2027 -
Gabriel Novaes Colchester United Ativo 109 / 96 40% 1 17.06.2027 -
Will Dobson Newcastle Jets Ativo 103 / 113 69% 1 14.06.2027 Aprovar
Dato Shengelia Zugdidi Ativo 95 / 96 89% 1 01.06.2027 Aprovar
Abeiku Asante Hasaacas Ativo 109 / 111 90% 1 01.06.2027 Aprovar
José Cortés Maccabi Petach Tikva Relatório pronto 110 / 110 67% 1 01.06.2027 Aprovar
Sebit Ngor Brisbane Roar Perdido 101 / 91 69% 1 01.06.2027 -
Thomas Aquilina Newcastle Jets Ativo 111 / 104 69% 1 25.01.2027 Aprovar
Elliot Bonds Fleetwood Town Ativo 100 / 85 40% 1 13.01.2027 -
Luca Connell Barnsley Ativo 120 / 119 40% 1 13.01.2027 -
Andre Mohammed Hasaacas Ativo 115 / 110 40% 1 13.01.2027 -
Hosine Bility Brisbane Roar Ativo 100 / 98 65% 1 17.08.2026 Aprovar
Zach Mitchell Charlton Athletic Ativo 105 / 100 40% 1 03.08.2026 -
Johnly Yfeko Exeter City Ativo 93 / 99 40% 1 03.08.2026 -
Alex Murphy Newcastle United Ativo 95 / 107 40% 1 03.08.2026 -